[[{"header":{"parameterUnit":"m.s-1","parameterCategory":1,"la1":30.2991,"la2":30.254,"lo1":-89.0895,"lo2":-89.0444,"dy":0.0017,"dx":0.0017,"nx":28,"ny":28,"refTime":"2024-05-17T09:00:00:Z","depth":0,"parameterNumber":2,"parameterNumberName":"U-component_of_WINDS"},"data":[0,0,0,0,0,0,0,0,0,0,0,0,0,0,0,0,0,0,0,0,0,0,0,0,0,0,0,0,0,0,0,0,0,0,0,0,0,0,0,0,0,0,0,0,0,0,0,0,0,0,0,0,0,0,0,0,0,0,-0.4322,-0.4324,0,-0.4446,-0.4448,-0.4449,-0.4464,-0.4462,-0.4461,-0.446,-0.4593,-0.4598,-0.4602,0,0,0,0,0,0,0,0,0,0,0,0,0,-0.4103,-0.4107,-0.4322,-0.4324,-0.4325,-0.4446,-0.4448,-0.4449,-0.4464,-0.4462,-0.4461,-0.4459,-0.4592,-0.4597,-0.4603,0,0,0,0,0,0,0,0,0,0,0,0,0,-0.421,-0.4109,-0.4322,-0.4347,-0.435,-0.4446,-0.4448,-0.445,-0.4464,-0.4462,-0.446,-0.4459,-0.459,-0.4597,-0.4604,-0.4685,0,0,-0.4625,-0.4628,0,0,0,0,0,0,0,0,-0.4204,-0.4218,-0.4342,-0.4345,-0.4349,-0.4437,-0.4419,-0.4529,-0.4465,-0.4421,-0.446,-0.4458,-0.4543,-0.4554,-0.4582,-0.4691,-0.4697,-0.4626,-0.463,-0.4633,-0.4635,0,0,0,0,0,0,0,-0.4197,-0.4213,-0.4371,-0.4343,-0.4348,-0.4354,-0.4367,-0.444,-0.4491,-0.4425,-0.4426,-0.444,-0.4545,-0.4575,-0.4585,-0.4698,-0.4626,-0.4632,-0.4636,-0.4639,-0.4881,-0.4883,0,0,0,0,0,0,-0.4184,-0.4207,-0.4367,-0.4375,-0.427,-0.4359,-0.4374,-0.4411,-0.449,-0.4501,-0.4442,-0.444,-0.4564,-0.4577,-0.459,-0.4689,-0.4633,-0.464,-0.4644,-0.4879,-0.4882,-0.4884,0,0,0,0,0,0,-0.4179,-0.4198,-0.4362,-0.4291,-0.4313,-0.4365,-0.4407,-0.4415,-0.4444,-0.4503,-0.4513,-0.4462,-0.4563,-0.458,-0.466,-0.4694,-0.4643,-0.4649,-0.4876,-0.488,-0.4883,-0.4889,0,0,0,0,0,0,-0.4173,-0.4196,-0.4226,-0.4292,-0.4316,-0.4429,-0.4409,-0.4418,-0.4455,-0.4455,-0.4525,-0.4535,-0.4562,-0.465,-0.4667,-0.4703,-0.4655,-0.4873,-0.4878,-0.4882,-0.4886,-0.4892,-0.4897,0,0,0,0,0,-0.4165,-0.4224,-0.4227,-0.4247,-0.4354,-0.4431,-0.4445,-0.4474,-0.4458,-0.4489,-0.4528,-0.4533,-0.4688,-0.4658,-0.4678,-0.4716,-0.4872,-0.4877,-0.4881,-0.4884,-0.4891,-0.4897,0,0,0,0,0,0,-0.4163,-0.4233,-0.4238,-0.432,-0.4369,-0.4433,-0.4473,-0.4481,-0.4538,-0.4535,-0.457,-0.4586,-0.4665,-0.4699,-0.4665,-0.4799,-0.4778,-0.4788,-0.4773,-0.4781,-0.4786,-0.4776,-0.4661,0,0,0,0,0,-0.4172,-0.4226,-0.4286,-0.4353,-0.4377,-0.4421,-0.4456,-0.4473,-0.4527,-0.4548,-0.4592,-0.4646,-0.4707,-0.4746,-0.4805,-0.4892,-0.4907,-0.4928,-0.4934,-0.4938,-0.4945,-0.4994,-0.5003,-0.49,-0.49,-0.49,0,0,-0.4191,-0.4236,-0.4269,-0.4353,-0.4393,-0.4451,-0.4438,-0.45,-0.4543,-0.4558,-0.4636,-0.4671,-0.4733,-0.4817,-0.4856,-0.4848,-0.4977,-0.4944,-0.4947,-0.4952,-0.5,-0.5009,-0.5018,-0.4903,-0.4903,-0.4902,0,0,-0.4255,-0.4294,-0.4354,-0.4395,-0.4455,-0.4484,-0.4499,-0.4562,-0.4585,-0.4663,-0.4676,-0.473,-0.4833,-0.4877,-0.4913,-0.4994,-0.5001,-0.5013,-0.5042,-0.5088,-0.5097,-0.5104,-0.5132,-0.5142,-0.502,-0.502,-0.502,0,-0.4271,-0.4356,-0.4384,-0.4445,-0.4482,-0.4497,-0.4558,-0.4597,-0.4675,-0.4701,-0.469,-0.482,-0.4863,-0.4957,-0.4977,-0.5006,-0.5024,-0.5004,-0.5093,-0.5101,-0.5108,-0.5135,-0.5146,-0.5021,-0.5021,-0.5021,-0.5021,0,-0.4373,-0.4432,-0.4474,-0.4546,-0.4588,-0.4649,-0.4688,-0.4728,-0.4742,-0.4773,-0.4853,-0.4906,-0.4975,-0.5,-0.5015,-0.5096,-0.5089,-0.5085,-0.5065,-0.5118,-0.5144,-0.5155,-0.5022,-0.5022,-0.5022,-0.5021,0,0,-0.4438,-0.4525,-0.454,-0.4573,-0.4641,-0.4688,-0.4751,-0.4817,-0.485,-0.4904,-0.4958,-0.5046,-0.5042,-0.5083,-0.5104,-0.5145,-0.5206,-0.5137,-0.5139,-0.5147,-0.5298,-0.5299,-0.5311,-0.5211,-0.5213,-0.5215,-0.5293,0,-0.4509,-0.4618,-0.4645,-0.4739,-0.4794,-0.4809,-0.4864,-0.4913,-0.4943,-0.4996,-0.5032,-0.5093,-0.5084,-0.5109,-0.515,-0.5189,-0.5236,-0.5184,-0.5262,-0.5265,-0.5244,-0.5325,-0.5327,-0.5397,-0.5303,-0.5305,-0.5306,0,-0.4606,-0.4659,-0.4758,-0.4819,-0.4843,-0.4891,-0.4954,-0.5004,-0.5061,-0.508,-0.5126,-0.5143,-0.521,-0.5187,-0.5281,-0.5245,-0.5279,-0.5304,-0.5307,-0.5315,-0.5288,-0.5334,-0.542,-0.543,-0.5323,-0.5322,-0.532,0,-0.4642,-0.4739,-0.481,-0.4838,-0.4912,-0.4945,-0.4978,-0.5032,-0.507,-0.5127,-0.5152,-0.5216,-0.5251,-0.5302,-0.5336,-0.5317,-0.5427,-0.5408,-0.5446,-0.5445,-0.5468,-0.5466,-0.556,-0.5492,-0.5492,-0.5491,-0.5491,0,-0.4718,-0.4777,-0.4827,-0.4871,-0.4938,-0.4971,-0.5037,-0.5071,-0.5119,-0.5171,-0.519,-0.5238,-0.5282,-0.5337,-0.5365,-0.5438,-0.5455,-0.5473,-0.548,-0.5471,-0.5468,-0.5493,-0.5488,-0.5494,-0.5494,-0.5493,-0.5493,0,-0.4769,-0.4805,-0.4883,-0.4946,-0.4964,-0.501,-0.5065,-0.5109,-0.514,-0.5206,-0.5223,-0.5274,-0.5339,-0.5379,-0.5463,-0.5482,-0.5563,-0.5568,-0.5543,-0.5545,-0.5581,-0.5577,-0.5694,-0.5711,-0.5632,-0.5633,-0.5633,0,-0.4814,-0.486,-0.4927,-0.4962,-0.4994,-0.5051,-0.5089,-0.5124,-0.5163,-0.5231,-0.5267,-0.5334,-0.5388,-0.5493,-0.5539,-0.5603,-0.561,-0.5646,-0.562,-0.5609,-0.5609,-0.5606,-0.561,-0.565,-0.5651,-0.5652,-0.5652,0,-0.489,-0.4906,-0.4959,-0.502,-0.5064,-0.5114,-0.5164,-0.5192,-0.5235,-0.5279,-0.5345,-0.5388,-0.5473,-0.5539,-0.5607,-0.5643,-0.5655,-0.566,-0.5672,-0.5663,-0.5646,-0.5655,-0.5554,-0.5657,-0.5657,-0.5656,-0.5656,-0.5656,-0.4939,-0.498,-0.5034,-0.5093,-0.5134,-0.518,-0.5223,-0.526,-0.5315,-0.5385,-0.5403,-0.5473,-0.553,-0.5622,-0.566,-0.5716,-0.5711,-0.5729,-0.5733,-0.5736,-0.5737,-0.5638,-0.5729,-0.5729,-0.5729,-0.5729,-0.5729,0,-0.5015,-0.505,-0.5105,-0.5172,-0.5219,-0.5225,-0.5281,-0.532,-0.538,-0.5431,-0.5484,-0.556,-0.5625,-0.5675,-0.5742,-0.5777,-0.5784,-0.5793,-0.5791,-0.5799,-0.5738,-0.572,-0.5786,-0.5786,-0.5786,-0.5786,-0.5786,-0.5786,-0.506,-0.513,-0.5152,-0.5242,-0.5278,-0.5344,-0.5375,-0.5418,-0.5459,-0.5542,-0.5595,-0.5627,-0.5678,-0.5748,-0.5808,-0.5822,-0.5845,-0.5853,-0.5867,-0.5809,-0.5803,-0.5797,-0.578,-0.5858,-0.5858,-0.5923,-0.5923,-0.5924]},{"header":{"parameterUnit":"m.s-1","parameterCategory":1,"la1":30.2991,"la2":30.254,"lo1":-89.0895,"lo2":-89.0444,"dy":0.0017,"dx":0.0017,"nx":28,"ny":28,"refTime":"2024-05-17T09:00:00:Z","depth":0,"parameterNumber":3,"parameterNumberName":"V-component_of_WINDS"},"data":[0,0,0,0,0,0,0,0,0,0,0,0,0,0,0,0,0,0,0,0,0,0,0,0,0,0,0,0,0,0,0,0,0,0,0,0,0,0,0,0,0,0,0,0,0,0,0,0,0,0,0,0,0,0,0,0,0,0,-0.5758,-0.5759,0,-0.5883,-0.5885,-0.5886,-0.6116,-0.6121,-0.6125,-0.6129,-0.6248,-0.6247,-0.6247,0,0,0,0,0,0,0,0,0,0,0,0,0,-0.5708,-0.5707,-0.5758,-0.5759,-0.5761,-0.5883,-0.5885,-0.5886,-0.6115,-0.6121,-0.6126,-0.6131,-0.6249,-0.6248,-0.6246,0,0,0,0,0,0,0,0,0,0,0,0,0,-0.577,-0.5707,-0.5757,-0.589,-0.5903,-0.5883,-0.5885,-0.5887,-0.6114,-0.6121,-0.6128,-0.6134,-0.6249,-0.6248,-0.6246,-0.6104,0,0,-0.6242,-0.6241,0,0,0,0,0,0,0,0,-0.5767,-0.5772,-0.5869,-0.5881,-0.5896,-0.5991,-0.5911,-0.5959,-0.6112,-0.6034,-0.6129,-0.6137,-0.6157,-0.6163,-0.6172,-0.6109,-0.6115,-0.6242,-0.6241,-0.624,-0.624,0,0,0,0,0,0,0,-0.5762,-0.5768,-0.5807,-0.587,-0.5886,-0.594,-0.5957,-0.5921,-0.6056,-0.6041,-0.6058,-0.607,-0.6165,-0.6173,-0.6176,-0.6116,-0.6242,-0.624,-0.624,-0.6239,-0.594,-0.5933,0,0,0,0,0,0,-0.5739,-0.5763,-0.5803,-0.5811,-0.5846,-0.5936,-0.5954,-0.5953,-0.6057,-0.608,-0.6064,-0.6081,-0.6172,-0.6178,-0.6181,-0.6019,-0.624,-0.6239,-0.6238,-0.5947,-0.5939,-0.5931,0,0,0,0,0,0,-0.5737,-0.5741,-0.5798,-0.5792,-0.5803,-0.593,-0.5927,-0.5952,-0.596,-0.6075,-0.6099,-0.6048,-0.6177,-0.6184,-0.6121,-0.6026,-0.6238,-0.6237,-0.5955,-0.5944,-0.5935,-0.5693,0,0,0,0,0,0,-0.5735,-0.5739,-0.5688,-0.5789,-0.5803,-0.5738,-0.5921,-0.595,-0.5958,-0.598,-0.6066,-0.6086,-0.6183,-0.6122,-0.612,-0.6028,-0.6236,-0.5964,-0.5951,-0.5938,-0.571,-0.5675,-0.5646,0,0,0,0,0,-0.5732,-0.5614,-0.5684,-0.5688,-0.5742,-0.5732,-0.5739,-0.5856,-0.595,-0.5898,-0.5971,-0.6083,-0.6038,-0.6114,-0.6113,-0.6019,-0.5971,-0.5954,-0.5939,-0.5724,-0.5682,-0.5647,0,0,0,0,0,0,-0.5495,-0.5629,-0.5709,-0.562,-0.5663,-0.5771,-0.5709,-0.5808,-0.5823,-0.5843,-0.5985,-0.6002,-0.592,-0.5965,-0.6047,-0.5886,-0.6022,-0.6005,-0.5859,-0.582,-0.5788,-0.5777,-0.6235,0,0,0,0,0,-0.5433,-0.5416,-0.5534,-0.5443,-0.5461,-0.5581,-0.5581,-0.5667,-0.5716,-0.5735,-0.5804,-0.5845,-0.584,-0.5833,-0.5835,-0.5719,-0.5738,-0.5654,-0.5622,-0.5595,-0.5577,-0.5515,-0.5478,-0.5879,-0.5879,-0.5879,0,0,-0.5303,-0.5374,-0.5355,-0.5397,-0.5441,-0.5417,-0.5594,-0.5562,-0.5545,-0.5729,-0.5674,-0.5726,-0.5781,-0.569,-0.5654,-0.5725,-0.5471,-0.5575,-0.5553,-0.5549,-0.5495,-0.5457,-0.5423,-0.5868,-0.587,-0.5872,0,0,-0.5053,-0.5108,-0.5037,-0.5078,-0.5143,-0.5223,-0.5205,-0.5299,-0.5341,-0.5289,-0.5426,-0.5406,-0.5396,-0.5428,-0.5443,-0.5206,-0.5307,-0.5202,-0.5033,-0.4971,-0.4939,-0.4912,-0.4822,-0.4789,-0.5185,-0.5185,-0.5184,0,-0.4882,-0.4855,-0.4987,-0.4946,-0.4959,-0.5129,-0.5056,-0.5088,-0.5148,-0.5151,-0.5232,-0.5221,-0.527,-0.5187,-0.5129,-0.5137,-0.5118,-0.5191,-0.4934,-0.4908,-0.4884,-0.48,-0.4766,-0.5171,-0.5173,-0.5174,-0.5175,0,-0.464,-0.4618,-0.4553,-0.461,-0.4616,-0.4559,-0.4679,-0.4669,-0.4755,-0.4826,-0.4769,-0.4834,-0.4851,-0.4839,-0.4922,-0.4767,-0.4808,-0.4909,-0.5048,-0.483,-0.4753,-0.4722,-0.5152,-0.5157,-0.5161,-0.5164,0,0,-0.4241,-0.4373,-0.4346,-0.4372,-0.4456,-0.4441,-0.439,-0.441,-0.4396,-0.4432,-0.439,-0.4378,-0.4471,-0.4488,-0.4576,-0.4522,-0.4324,-0.463,-0.4633,-0.4566,-0.4152,-0.4071,-0.4032,-0.4395,-0.4389,-0.4385,-0.4146,0,-0.4006,-0.3929,-0.4047,-0.3942,-0.3921,-0.4082,-0.4038,-0.4082,-0.4147,-0.4136,-0.4208,-0.4195,-0.4322,-0.4332,-0.4287,-0.4357,-0.4242,-0.4377,-0.4351,-0.4349,-0.4327,-0.3994,-0.3909,-0.368,-0.4117,-0.4112,-0.4109,0,-0.3721,-0.3745,-0.3638,-0.3727,-0.3723,-0.3681,-0.3706,-0.3697,-0.3749,-0.38,-0.3818,-0.3924,-0.3877,-0.4015,-0.395,-0.4039,-0.4036,-0.4069,-0.4063,-0.4061,-0.4211,-0.3977,-0.3611,-0.3573,-0.4064,-0.4067,-0.407,0,-0.3434,-0.344,-0.3377,-0.3395,-0.3499,-0.3465,-0.3506,-0.3566,-0.3569,-0.3591,-0.3594,-0.3609,-0.3615,-0.3623,-0.3728,-0.382,-0.3648,-0.3796,-0.3684,-0.3681,-0.3636,-0.3637,-0.3258,-0.3642,-0.3643,-0.3644,-0.3644,0,-0.3157,-0.3083,-0.3249,-0.3209,-0.3131,-0.3266,-0.3184,-0.3241,-0.3293,-0.3264,-0.3405,-0.3374,-0.3518,-0.3502,-0.3584,-0.3515,-0.3518,-0.3554,-0.3576,-0.3538,-0.3533,-0.3534,-0.3551,-0.3635,-0.3637,-0.3638,-0.364,0,-0.2821,-0.2931,-0.2871,-0.2974,-0.2999,-0.2936,-0.3023,-0.2988,-0.3064,-0.3025,-0.3023,-0.3139,-0.3127,-0.3235,-0.3243,-0.3298,-0.3188,-0.324,-0.317,-0.3184,-0.3064,-0.3071,-0.2669,-0.2621,-0.304,-0.3036,-0.3032,0,-0.2634,-0.2582,-0.2681,-0.2673,-0.2707,-0.2693,-0.2697,-0.2828,-0.2826,-0.2882,-0.2839,-0.284,-0.2846,-0.2819,-0.2901,-0.2907,-0.2957,-0.2816,-0.2959,-0.2921,-0.2948,-0.2948,-0.2941,-0.2784,-0.2779,-0.2774,-0.2771,0,-0.2289,-0.2346,-0.2348,-0.2368,-0.237,-0.2392,-0.2422,-0.2407,-0.2549,-0.2539,-0.253,-0.2535,-0.2544,-0.254,-0.2563,-0.2602,-0.2706,-0.2726,-0.27,-0.2658,-0.2617,-0.2632,-0.3082,-0.2734,-0.2737,-0.274,-0.2742,-0.2744,-0.202,-0.1979,-0.2042,-0.2039,-0.2076,-0.2101,-0.2073,-0.2145,-0.2141,-0.2159,-0.2237,-0.2212,-0.2265,-0.2306,-0.2335,-0.2315,-0.2383,-0.2346,-0.2336,-0.2323,-0.2298,-0.2625,-0.2321,-0.2322,-0.2323,-0.2324,-0.2325,0,-0.1677,-0.1726,-0.1722,-0.1761,-0.1757,-0.1863,-0.1902,-0.189,-0.1868,-0.191,-0.1914,-0.1901,-0.1898,-0.1981,-0.1988,-0.1956,-0.2004,-0.1952,-0.1953,-0.1959,-0.224,-0.226,-0.1913,-0.1913,-0.1913,-0.1913,-0.1913,-0.1913,-0.1498,-0.1434,-0.1498,-0.1452,-0.1502,-0.1481,-0.1493,-0.1515,-0.1549,-0.1529,-0.1528,-0.1584,-0.1641,-0.1653,-0.1653,-0.1678,-0.1671,-0.1601,-0.164,-0.19,-0.194,-0.1978,-0.1997,-0.16,-0.16,-0.1361,-0.1359,-0.1357]}]]